Parkersburg, WV

12:58 AM EST on November 19, 2017 (GMT -0500)
Wood County Wilson

Weather History for KPKB - September, 2012

Change the Weather History Date:

Sunday, September 30, 2012

  Actual Average Record
Temperature  
Mean Temperature 58 °F 61 °F  
Max Temperature 71 °F 72 °F 95 °F (1953)
Min Temperature 45 °F 49 °F 33 °F (1935)
Degree Days  
Heating Degree Days 7 6  
Month to date heating degree days 101 72  
Since 1 July heating degree days 101 76  
Cooling Degree Days 0 1  
Month to date cooling degree days 115 106  
Year to date cooling degree days 1160 936  
Growing Degree Days 8 (Base 50)    
Moisture  
Dew Point 47 °F    
Average Humidity 67    
Maximum Humidity 93    
Minimum Humidity 40    
Precipitation  
Precipitation 0.00 in 0.10 in 0.94 in (1959)
Month to date precipitation 6.09 3.08  
Year to date precipitation 32.80 31.87  
Sea Level Pressure  
Sea Level Pressure 29.90 in    
Wind  
Wind Speed 3 mph (NW)    
Max Wind Speed 13 mph    
Max Gust Speed 17 mph    
Visibility 8 miles    
Events      
T = Trace of Precipitation, MM = Missing Value Source: NWS Daily Summary

Daily Weather History Graph

Daily Weather History Graph

Search for Another Location

Airport or City:

Trip Planner

Search our weather history database for the weather conditions in past years. The results will help you decide how hot, cold, wet, or windy it might be!

Date:

Astronomy

Sep. 30, 2012 Rise Set
Actual Time 7:21 AM EDT 7:09 PM EDT
Civil Twilight 6:54 AM EDT 7:35 PM EDT
Nautical Twilight 6:23 AM EDT 8:06 PM EDT
Astronomical Twilight 5:52 AM EDT 8:38 PM EDT
Moon 7:12 PM EDT (9/30) 7:50 AM EDT (9/30)
Length of Visible Light 12h 41m
Length of Day
11h 47m
Full, 100% of the Moon is Illuminated
Sep 30
Full
Oct 8
Last Quarter
Oct 15
New
Oct 21
First Quarter
Oct 29
Full

Hourly Weather History & Observations

Time (EDT) Temp. Dew Point Humidity Pressure Visibility Wind Dir Wind Speed Gust Speed Precip Events Conditions
12:53 AM 52.0 °F 48.9 °F 89% 29.97 in 8.0 mi Calm Calm - N/A   Mostly Cloudy
1:53 AM 51.1 °F 48.0 °F 89% 29.96 in 7.0 mi Calm Calm - N/A   Clear
2:53 AM 50.0 °F 46.9 °F 89% 29.95 in 6.0 mi Calm Calm - N/A   Clear
3:53 AM 48.0 °F 46.0 °F 93% 29.94 in 5.0 mi Calm Calm - N/A   Clear
4:53 AM 46.9 °F 45.0 °F 93% 29.92 in 5.0 mi Calm Calm - N/A   Clear
5:53 AM 45.0 °F 43.0 °F 93% 29.91 in 5.0 mi Calm Calm - N/A   Clear
6:53 AM 46.9 °F 44.1 °F 90% 29.90 in 8.0 mi Calm Calm - N/A   Clear
7:53 AM 46.9 °F 45.0 °F 93% 29.91 in 6.0 mi Calm Calm - N/A   Clear
8:53 AM 51.1 °F 48.0 °F 89% 29.91 in 8.0 mi SE 3.5 mph - N/A   Clear
9:53 AM 55.9 °F 50.0 °F 80% 29.91 in 10.0 mi Variable 4.6 mph - N/A   Mostly Cloudy
10:53 AM 60.1 °F 50.0 °F 69% 29.90 in 10.0 mi Variable 6.9 mph - N/A   Scattered Clouds
11:53 AM 63.0 °F 50.0 °F 63% 29.90 in 10.0 mi WSW 4.6 mph - N/A   Mostly Cloudy
12:53 PM 66.9 °F 50.0 °F 54% 29.89 in 10.0 mi Variable 5.8 mph - N/A   Scattered Clouds
1:53 PM 68.0 °F 46.9 °F 47% 29.87 in 10.0 mi SW 6.9 mph - N/A   Scattered Clouds
2:53 PM 70.0 °F 45.0 °F 41% 29.86 in 10.0 mi West 10.4 mph - N/A   Partly Cloudy
3:53 PM 69.1 °F 44.1 °F 40% 29.85 in 10.0 mi WNW 9.2 mph - N/A   Partly Cloudy
4:53 PM 71.1 °F 46.0 °F 41% 29.85 in 10.0 mi North 8.1 mph - N/A   Clear
5:53 PM 66.0 °F 46.9 °F 50% 29.86 in 10.0 mi North 5.8 mph - N/A   Clear
6:53 PM 64.0 °F 46.0 °F 52% 29.88 in 10.0 mi North 4.6 mph - N/A   Clear
7:53 PM 60.1 °F 46.9 °F 62% 29.91 in 10.0 mi NE 4.6 mph - N/A   Clear
11:53 PM 50.0 °F 46.9 °F 89% 29.94 in 6.0 mi Calm Calm - N/A   Clear